Previsão horária em Almala

Hoje, 25 Junho, Sexta-feira

Tempo Temperatura Precipitação Vento Pressão Humidade
00:00 +22°C° 0 mm 1 m/s 742 mmHg 64%
01:00 +21°C° 0 mm 1 m/s 742 mmHg 65%
02:00 +20°C° 0 mm 1 m/s 742 mmHg 65%
03:00 +20°C° 0 mm 1 m/s 742 mmHg 66%
04:00 +20°C° 0 mm 1 m/s 741 mmHg 68%
05:00 +22°C° 0 mm 1 m/s 742 mmHg 66%
06:00 +24°C° 0 mm 1 m/s 742 mmHg 64%
07:00 +25°C° 0 mm 1 m/s 742 mmHg 62%
08:00 +27°C° 0 mm 2 m/s 742 mmHg 58%
09:00 +29°C° 0 mm 3 m/s 741 mmHg 55%
10:00 +30°C° 0 mm 3 m/s 741 mmHg 51%
11:00 +32°C° 0 mm 4 m/s 741 mmHg 47%
12:00 +33°C° 0 mm 4 m/s 741 mmHg 44%
13:00 +34°C° 0 mm 5 m/s 741 mmHg 40%
14:00 +34°C° 0 mm 4 m/s 740 mmHg 40%
15:00 +34°C° 0 mm 4 m/s 740 mmHg 41%
16:00 +34°C° 0 mm 4 m/s 740 mmHg 41%
17:00 +29°C° 1.2 mm 6 m/s 740 mmHg 52%
18:00 +26°C° 1.2 mm 8 m/s 740 mmHg 64%
19:00 +22°C° 1.2 mm 10 m/s 741 mmHg 75%
20:00 +21°C° 0.1 mm 7 m/s 740 mmHg 74%
21:00 +21°C° 0.1 mm 4 m/s 740 mmHg 73%
22:00 +21°C° 0.1 mm 2 m/s 739 mmHg 71%
23:00 +22°C° 0.1 mm 1 m/s 739 mmHg 77%

Amanhã, 26 Junho, Sábado

Tempo Temperatura Precipitação Vento Pressão Humidade
00:00 +21°C° 0.1 mm 1 m/s 739 mmHg 82%
01:00 +21°C° 0.1 mm 1 m/s 739 mmHg 88%
02:00 +21°C° 0 mm 1 m/s 739 mmHg 88%
03:00 +20°C° 0 mm 2 m/s 739 mmHg 87%
04:00 +19°C° 0 mm 2 m/s 739 mmHg 87%
05:00 +21°C° 0 mm 2 m/s 739 mmHg 81%
06:00 +23°C° 0 mm 2 m/s 739 mmHg 76%
07:00 +25°C° 0 mm 2 m/s 739 mmHg 70%
08:00 +26°C° 0 mm 2 m/s 739 mmHg 65%
09:00 +28°C° 0 mm 3 m/s 739 mmHg 60%
10:00 +30°C° 0 mm 3 m/s 739 mmHg 56%
11:00 +31°C° 0 mm 3 m/s 739 mmHg 52%
12:00 +33°C° 0 mm 4 m/s 739 mmHg 49%
13:00 +34°C° 0 mm 4 m/s 739 mmHg 46%
14:00 +34°C° 0 mm 5 m/s 739 mmHg 44%
15:00 +34°C° 0 mm 5 m/s 739 mmHg 43%
16:00 +34°C° 0 mm 5 m/s 739 mmHg 41%
17:00 +33°C° 0 mm 4 m/s 739 mmHg 45%
18:00 +32°C° 0 mm 4 m/s 738 mmHg 49%
19:00 +32°C° 0 mm 4 m/s 738 mmHg 54%
20:00 +29°C° 0 mm 3 m/s 738 mmHg 59%
21:00 +27°C° 0 mm 2 m/s 738 mmHg 64%
22:00 +26°C° 0 mm 2 m/s 739 mmHg 69%
23:00 +25°C° 0.2 mm 2 m/s 739 mmHg 72%

Depois de amanhã, 27 Junho, Domingo

Tempo Temperatura Precipitação Vento Pressão Humidade
00:00 +24°C° 0.2 mm 2 m/s 739 mmHg 76%
01:00 +24°C° 0.2 mm 2 m/s 739 mmHg 79%
02:00 +23°C° 0 mm 2 m/s 739 mmHg 80%
03:00 +23°C° 0 mm 2 m/s 739 mmHg 82%
04:00 +23°C° 0 mm 1 m/s 739 mmHg 83%
05:00 +24°C° 0 mm 1 m/s 739 mmHg 79%
06:00 +25°C° 0 mm 2 m/s 739 mmHg 74%
07:00 +27°C° 0 mm 2 m/s 739 mmHg 70%
08:00 +28°C° 0 mm 2 m/s 739 mmHg 63%
09:00 +29°C° 0 mm 2 m/s 739 mmHg 56%
10:00 +31°C° 0 mm 3 m/s 739 mmHg 49%
11:00 +33°C° 0 mm 3 m/s 739 mmHg 47%
12:00 +33°C° 0 mm 4 m/s 739 mmHg 44%
13:00 +34°C° 0 mm 4 m/s 739 mmHg 41%
14:00 +34°C° 0 mm 4 m/s 739 mmHg 40%
15:00 +34°C° 0 mm 4 m/s 739 mmHg 39%
16:00 +35°C° 0 mm 4 m/s 739 mmHg 38%
17:00 +33°C° 0 mm 4 m/s 739 mmHg 43%
18:00 +31°C° 0 mm 3 m/s 739 mmHg 49%
19:00 +30°C° 0 mm 3 m/s 739 mmHg 55%
20:00 +29°C° 0 mm 3 m/s 739 mmHg 59%
21:00 +27°C° 0 mm 2 m/s 739 mmHg 63%
22:00 +26°C° 0 mm 2 m/s 739 mmHg 67%
23:00 +25°C° 0 mm 1 m/s 739 mmHg 69%

28 Junho, Segunda-feira

Tempo Temperatura Precipitação Vento Pressão Humidade
00:00 +25°C° 0 mm 1 m/s 739 mmHg 70%
01:00 +24°C° 0 mm 1 m/s 739 mmHg 72%
02:00 +24°C° 0 mm 1 m/s 739 mmHg 73%
03:00 +24°C° 0 mm 1 m/s 739 mmHg 74%
04:00 +23°C° 0 mm 1 m/s 739 mmHg 75%
05:00 +23°C° 0 mm 0 m/s 740 mmHg 70%
06:00 +24°C° 0 mm 0 m/s 740 mmHg 65%
07:00 +25°C° 0 mm 0 m/s 740 mmHg 60%
08:00 +27°C° 0 mm 0 m/s 740 mmHg 56%
09:00 +30°C° 0 mm 1 m/s 740 mmHg 51%
10:00 +31°C° 0 mm 1 m/s 740 mmHg 46%
11:00 +32°C° 0 mm 1 m/s 740 mmHg 43%
12:00 +33°C° 0 mm 1 m/s 740 mmHg 40%
13:00 +34°C° 0 mm 1 m/s 740 mmHg 37%
14:00 +33°C° 0 mm 1 m/s 740 mmHg 40%
15:00 +32°C° 0 mm 1 m/s 740 mmHg 43%
16:00 +32°C° 0 mm 1 m/s 740 mmHg 46%
17:00 +30°C° 0.3 mm 2 m/s 740 mmHg 51%
18:00 +29°C° 0.3 mm 3 m/s 740 mmHg 57%
19:00 +28°C° 0.3 mm 4 m/s 740 mmHg 63%
20:00 +27°C° 0.1 mm 3 m/s 739 mmHg 62%
21:00 +26°C° 0.1 mm 2 m/s 739 mmHg 61%
22:00 +25°C° 0.1 mm 1 m/s 739 mmHg 61%
23:00 +25°C° 0 mm 1 m/s 739 mmHg 63%

29 Junho, Terça-feira

Tempo Temperatura Precipitação Vento Pressão Humidade
00:00 +22°C° 0 mm 0 m/s 739 mmHg 66%
01:00 +22°C° 0 mm 0 m/s 739 mmHg 68%
02:00 +23°C° 0.1 mm 1 m/s 739 mmHg 71%
03:00 +23°C° 0.1 mm 2 m/s 739 mmHg 73%
04:00 +21°C° 0.1 mm 2 m/s 738 mmHg 75%
05:00 +24°C° 0 mm 2 m/s 738 mmHg 72%
06:00 +25°C° 0 mm 2 m/s 739 mmHg 68%
07:00 +26°C° 0 mm 2 m/s 739 mmHg 65%
08:00 +28°C° 0 mm 2 m/s 739 mmHg 59%
09:00 +30°C° 0 mm 1 m/s 739 mmHg 53%
10:00 +31°C° 0 mm 1 m/s 739 mmHg 46%
11:00 +34°C° 0 mm 2 m/s 739 mmHg 42%
12:00 +35°C° 0 mm 2 m/s 739 mmHg 38%
13:00 +36°C° 0 mm 2 m/s 739 mmHg 35%
14:00 +36°C° 0 mm 2 m/s 739 mmHg 33%
15:00 +36°C° 0 mm 1 m/s 738 mmHg 32%
16:00 +36°C° 0 mm 1 m/s 738 mmHg 31%
17:00 +36°C° 0 mm 1 m/s 738 mmHg 34%
18:00 +35°C° 0 mm 1 m/s 738 mmHg 38%
19:00 +34°C° 0 mm 1 m/s 738 mmHg 41%
20:00 +32°C° 0 mm 1 m/s 737 mmHg 45%
21:00 +30°C° 0 mm 1 m/s 737 mmHg 50%
22:00 +25°C° 0 mm 0 m/s 737 mmHg 54%
23:00 +27°C° 0 mm 1 m/s 737 mmHg 57%

30 Junho, Quarta-feira

Tempo Temperatura Precipitação Vento Pressão Humidade
00:00 +26°C° 0 mm 2 m/s 737 mmHg 59%
01:00 +26°C° 0 mm 2 m/s 737 mmHg 62%
02:00 +25°C° 0 mm 2 m/s 737 mmHg 62%
03:00 +25°C° 0 mm 2 m/s 737 mmHg 63%
04:00 +25°C° 0 mm 2 m/s 737 mmHg 64%
05:00 +26°C° 0 mm 2 m/s 737 mmHg 63%
06:00 +27°C° 0 mm 2 m/s 737 mmHg 61%
07:00 +28°C° 0 mm 3 m/s 738 mmHg 59%
08:00 +30°C° 0 mm 3 m/s 737 mmHg 53%
09:00 +33°C° 0 mm 4 m/s 737 mmHg 47%
10:00 +35°C° 0 mm 5 m/s 737 mmHg 40%
11:00 +36°C° 0 mm 5 m/s 737 mmHg 36%
12:00 +39°C° 0 mm 5 m/s 736 mmHg 32%
13:00 +40°C° 0 mm 5 m/s 736 mmHg 27%
14:00 +40°C° 0 mm 5 m/s 736 mmHg 26%
15:00 +41°C° 0 mm 5 m/s 736 mmHg 24%
16:00 +41°C° 0 mm 5 m/s 735 mmHg 23%
17:00 +39°C° 0 mm 5 m/s 735 mmHg 30%
18:00 +36°C° 0 mm 6 m/s 735 mmHg 36%
19:00 +35°C° 0 mm 6 m/s 735 mmHg 43%
20:00 +32°C° 0 mm 5 m/s 735 mmHg 50%
21:00 +29°C° 0 mm 4 m/s 735 mmHg 58%
22:00 +27°C° 0 mm 3 m/s 735 mmHg 66%
23:00 +26°C° 0 mm 3 m/s 735 mmHg 70%
Mostrar mais